Location: Heilbronn
(49.1548°N, 9.2780°E)
Time: 14:38:20
(UTC+02:00)

ISS - Pass Details

Date: 22 March 2017
Orbit: 400 x 408 km, 51.6° (Epoch: 27 July)

Event Time Altitude Azimuth Distance (km) Brightness Sun altitude
Exits shadow 03:53:50 19° 123° (ESE) 1,063 -1.5 -23.7°
Drops below altitude 10° 03:54:55 10° 121° (ESE) 1,495 -0.6 -23.6°
Sets 03:57:01 0° 119° (ESE) 2,357 0.5 -23.3°
